Terminal Aerodrome Forecast
Issued by NWS Wilmington, OH

Home | Current Version | Previous Version | Text Only | Print | Product List | Glossary On
Versions: 1 2 3 4 5 6 7 8 9 10 11 12 13 14 15 16 17 18 19 20 21 22 23 24 25 26 27 28 29 30
395
FTUS41 KILN 261609 AAD
TAFDAY
TAF AMD
KDAY 261609Z 2616/2712 27015G24KT P6SM VCSH BKN010 BKN015 OVC035
     FM261900 28012G18KT P6SM SCT100
     FM270000 24005KT P6SM SKC=

USA.gov is the U.S. government's official web portal to all federal, state and local government web resources and services.